Voltar ao catálogo

STARLINK-30099

AtivoComunicaçõesVLEO
NORAD 56304·PAYLOAD·🇺🇸 United States

Lançado Apr 19, 2023 de Cape Canaveral Space Force Station

Loading…

Próximas Passagens (próximas 24 horas)

TLE

AtualizadoSource: CelesTrak SupGP

Época: Sep 14, 2026, 21:38 UTC

1 56304C 23056U   26257.90187500  .00024059  00000+0  87122-3 0  2575
2 56304  42.9993 220.0524 0001303 250.3906 336.8681 15.27574284    14

Acompanhe STARLINK-30099 em tempo real com AllMySat

Download on the App Store